Location: ČR
(50.0000°N, 15.0000°E)
Time: 16:31:24
(UTC+01:00)

Courier 1B - Pass Details

Date: 18 February 2026
Orbit: 962 x 1208 km, 28.3° (Epoch: 16 March)

Event Time Altitude Azimuth Distance (km) Brightness Sun altitude
Rises 19:56:37 0° 215° (SW) 3,926 10.9 -25.1°
Reaches altitude 10° 20:02:00 10° 183° (S) 3,033 10.0 -26.0°
Enters shadow 20:03:17 11° 173° (S) 2,972 9.8 -26.2°
Maximum altitude 20:03:57 11° 168° (SSE) 2,969 - -26.3°
Drops below altitude 10° 20:05:56 10° 152° (SSE) 3,074 - -26.6°
Sets 20:11:31 0° 121° (ESE) 4,082 - -27.5°
